Location: Malanoce
(44.2500°N, 7.4667°E)
Time: 12:36:47
(UTC+00:00)

Meteor 2-3 Rocket - Pass Details

Date: 17 November 2025
Orbit: 841 x 884 km, 81.2° (Epoch: 06 December)

Event Time Altitude Azimuth Distance (km) Brightness Sun altitude
Rises 18:39:15 0° 347° (NNW) 3,461 7.1 -28.2°
Reaches altitude 10° 18:41:43 10° 344° (NNW) 2,513 6.3 -28.6°
Maximum altitude 18:47:21 67° 264° (W) 928 4.0 -29.6°
Enters shadow 18:50:00 32° 191° (S) 1,433 4.9 -30.1°
